Location: Unspecified
(50.0830°N, 0.0000°E)
Time: 16:24:21
(UTC+00:00)

N. Korean satellite - Pass Details

Date: 23 November 2019
Orbit: 455 x 506 km, 97.2° (Epoch: 10 December)

Event Time Altitude Azimuth Distance (km) Brightness Sun altitude
Rises 18:11:51 0° 213° (SSW) 2,581 10.9 -19.5°
Reaches altitude 10° 18:14:52 10° 241° (WSW) 1,713 10.4 -20.0°
Maximum altitude 18:16:42 13° 271° (W) 1,523 10.1 -20.3°
Drops below altitude 10° 18:18:34 10° 302° (WNW) 1,728 10.0 -20.6°
Sets 18:21:39 0° 330° (NNW) 2,623 10.6 -21.1°
